TimeEST,TemperatureF,Dew PointF,Humidity,Sea Level PressureIn,VisibilityMPH,Wind Direction,Wind SpeedMPH,Gust SpeedMPH,PrecipitationIn,Events,Conditions,WindDirDegrees,DateUTC
12:51 AM,45.0,30.9,58,29.97,10.0,SSW,4.6,-,N/A,,Clear,210,2013-02-15 05:51:00
1:51 AM,44.1,32.0,63,30.00,10.0,NW,8.1,-,N/A,,Clear,320,2013-02-15 06:51:00
2:51 AM,39.0,32.0,76,30.02,10.0,North,4.6,-,N/A,,Clear,350,2013-02-15 07:51:00
3:51 AM,37.9,30.9,76,30.02,10.0,SE,3.5,-,N/A,,Clear,130,2013-02-15 08:51:00
4:51 AM,36.0,30.9,82,30.02,10.0,Calm,Calm,-,N/A,,Mostly Cloudy,0,2013-02-15 09:51:00
5:51 AM,35.1,30.9,85,30.03,10.0,SSW,3.5,-,N/A,,Overcast,210,2013-02-15 10:51:00
6:51 AM,36.0,30.9,82,30.05,9.0,Calm,Calm,-,N/A,,Overcast,0,2013-02-15 11:51:00
7:10 AM,35.6,32.0,87,30.03,6.0,ENE,3.5,-,0.00,Rain,Light Rain,60,2013-02-15 12:10:00
7:25 AM,35.6,32.0,87,30.03,9.0,SE,4.6,-,0.00,,Overcast,130,2013-02-15 12:25:00
7:51 AM,36.0,33.1,89,30.06,7.0,Calm,Calm,-,0.00,,Overcast,0,2013-02-15 12:51:00
8:51 AM,37.0,32.0,82,30.09,2.5,NW,6.9,-,0.00,Snow,Light Snow,320,2013-02-15 13:51:00
9:01 AM,35.6,32.0,87,30.09,2.5,NW,8.1,-,0.01,Snow,Light Snow,310,2013-02-15 14:01:00
9:06 AM,33.8,32.0,93,30.09,1.0,NW,6.9,-,0.01,Snow,Light Snow,320,2013-02-15 14:06:00
9:09 AM,33.8,30.2,87,30.09,0.8,NW,5.8,-,0.03,Snow,Light Snow,310,2013-02-15 14:09:00
9:23 AM,33.8,32.0,93,30.09,2.0,Calm,Calm,-,0.06,Snow,Light Snow,0,2013-02-15 14:23:00
9:51 AM,34.0,32.0,92,30.10,2.0,SSW,3.5,-,0.06,Snow,Light Snow,200,2013-02-15 14:51:00
10:13 AM,33.8,32.0,93,30.08,1.0,Calm,Calm,-,0.02,Snow,Light Snow,0,2013-02-15 15:13:00
10:51 AM,34.0,33.1,96,30.09,1.0,South,3.5,-,0.04,Snow,Light Snow,190,2013-02-15 15:51:00
11:51 AM,36.0,34.0,93,30.08,2.0,Calm,Calm,-,0.02,,Overcast,0,2013-02-15 16:51:00
12:51 PM,36.0,34.0,93,30.07,2.0,Calm,Calm,-,0.01,Rain,Light Rain,0,2013-02-15 17:51:00
1:29 PM,37.4,35.6,93,30.05,3.0,Calm,Calm,-,0.01,Rain,Light Rain,0,2013-02-15 18:29:00
1:51 PM,37.0,34.0,89,30.06,3.0,SSW,4.6,-,0.01,,Overcast,210,2013-02-15 18:51:00
2:03 PM,37.4,33.8,87,30.04,5.0,SW,4.6,-,N/A,,Overcast,230,2013-02-15 19:03:00
2:51 PM,37.9,35.1,89,30.06,6.0,SW,4.6,-,0.00,Rain,Light Rain,230,2013-02-15 19:51:00
3:29 PM,37.4,35.6,93,30.04,6.0,SSW,3.5,-,0.00,,Overcast,210,2013-02-15 20:29:00
3:51 PM,37.9,35.1,89,30.06,8.0,WSW,4.6,-,0.00,Rain,Light Rain,250,2013-02-15 20:51:00
3:53 PM,37.4,33.8,87,30.05,6.0,WSW,4.6,-,0.00,Rain,Light Rain,250,2013-02-15 20:53:00
4:51 PM,37.9,34.0,86,30.07,10.0,SW,4.6,-,0.00,,Overcast,230,2013-02-15 21:51:00
5:51 PM,37.0,34.0,89,30.07,10.0,Calm,Calm,-,0.01,,Mostly Cloudy,0,2013-02-15 22:51:00
6:51 PM,36.0,33.1,89,30.08,9.0,SSW,4.6,-,N/A,,Overcast,210,2013-02-15 23:51:00
7:51 PM,36.0,32.0,86,30.10,10.0,Calm,Calm,-,N/A,,Overcast,0,2013-02-16 00:51:00
8:51 PM,36.0,30.0,79,30.11,10.0,NNW,3.5,-,N/A,,Overcast,340,2013-02-16 01:51:00
9:25 PM,33.8,30.2,87,30.10,1.8,NW,8.1,-,0.00,Snow,Light Snow,320,2013-02-16 02:25:00
9:42 PM,33.8,30.2,87,30.10,3.0,NW,3.5,-,0.01,Snow,Light Snow,320,2013-02-16 02:42:00
9:51 PM,33.1,30.9,92,30.12,7.0,WNW,3.5,-,0.01,Snow,Light Snow,290,2013-02-16 02:51:00
10:51 PM,32.0,27.0,82,30.12,10.0,Variable,6.9,-,N/A,,Partly Cloudy,0,2013-02-16 03:51:00
11:51 PM,32.0,26.1,79,30.12,10.0,WNW,6.9,-,N/A,,Scattered Clouds,300,2013-02-16 04:51:00